Wink, TX

3:17 AM CDT on July 28, 2017 (GMT -0500)
Winkler County

Weather History for KINK - November, 2014

Change the Weather History Date:

Friday, November 7, 2014

  Actual Average Record
Temperature  
Mean Temperature 54 °F -  
Max Temperature 66 °F 69 °F 89 °F (2005)
Min Temperature 43 °F 41 °F 21 °F (1938)
Degree Days  
Heating Degree Days 10    
Growing Degree Days 4 (Base 50)    
Moisture  
Dew Point 44 °F    
Average Humidity 70    
Maximum Humidity 86    
Minimum Humidity 43    
Precipitation  
Precipitation 0.00 in - - ()
Sea Level Pressure  
Sea Level Pressure 30.11 in    
Wind  
Wind Speed 7 mph (SSW)    
Max Wind Speed 13 mph    
Max Gust Speed 20 mph    
Visibility 10 miles    
Events      
Averages and records for this station are not official NWS values.
T = Trace of Precipitation, MM = Missing Value Source: NWS Daily Summary

Daily Weather History Graph

Daily Weather History Graph

Search for Another Location

Airport or City:

Trip Planner

Search our weather history database for the weather conditions in past years. The results will help you decide how hot, cold, wet, or windy it might be!

Date:

Astronomy

Nov. 07, 2014 Rise Set
Actual Time 7:14 AM CST 5:58 PM CST
Civil Twilight 6:48 AM CST 6:23 PM CST
Nautical Twilight 6:19 AM CST 6:52 PM CST
Astronomical Twilight 5:50 AM CST 7:21 PM CST
Moon 6:53 PM CST (11/7) 7:51 AM CST (11/7)
Length of Visible Light 11h 35m
Length of Day
10h 44m
Full, 99% of the Moon is Illuminated
Nov 7
Full
Nov 14
Last Quarter
Nov 22
New
Nov 29
First Quarter
Dec 6
Full

Hourly Weather History & Observations

Time (CST) Temp. Windchill Dew Point Humidity Pressure Visibility Wind Dir Wind Speed Gust Speed Precip Events Conditions
12:53 AM 46.9 °F - 43.0 °F 86% 30.30 in 10.0 mi NW 5.8 mph - N/A   Clear
1:53 AM 46.0 °F 43.9 °F 42.1 °F 86% 30.27 in 10.0 mi North 4.6 mph - N/A   Clear
2:53 AM 45.0 °F 41.8 °F 41.0 °F 86% 30.27 in 10.0 mi NNW 5.8 mph - N/A   Clear
3:53 AM 45.0 °F 41.2 °F 39.9 °F 82% 30.24 in 10.0 mi NNW 6.9 mph - N/A   Clear
4:53 AM 44.1 °F 40.8 °F 39.9 °F 85% 30.23 in 10.0 mi NNE 5.8 mph - N/A   Clear
5:53 AM 44.1 °F 41.5 °F 39.0 °F 82% 30.22 in 10.0 mi NNW 4.6 mph - N/A   Clear
6:53 AM 43.0 °F 41.3 °F 37.9 °F 82% 30.22 in 10.0 mi North 3.5 mph - N/A   Clear
7:53 AM 44.1 °F 41.5 °F 39.9 °F 85% 30.23 in 10.0 mi South 4.6 mph - N/A   Clear
8:53 AM 50.0 °F - 43.0 °F 77% 30.24 in 10.0 mi South 5.8 mph - N/A   Clear
9:53 AM 54.0 °F - 45.0 °F 72% 30.22 in 10.0 mi SSW 5.8 mph - N/A   Clear
10:53 AM 57.9 °F - 42.1 °F 56% 30.19 in 10.0 mi South 11.5 mph - N/A   Clear
11:53 AM 61.0 °F - 42.1 °F 50% 30.15 in 10.0 mi SSW 9.2 mph - N/A   Clear
12:53 PM 63.0 °F - 41.0 °F 45% 30.09 in 10.0 mi SSW 12.7 mph 19.6 mph N/A   Clear
1:53 PM 64.9 °F - 42.1 °F 43% 30.04 in 10.0 mi SSW 11.5 mph - N/A   Clear
2:53 PM 66.0 °F - 44.1 °F 45% 30.01 in 10.0 mi SSW 10.4 mph - N/A   Clear
3:53 PM 66.9 °F - 46.0 °F 47% 29.99 in 10.0 mi SSW 9.2 mph - N/A   Clear
4:53 PM 66.9 °F - 46.0 °F 47% 29.97 in 10.0 mi SSW 8.1 mph - N/A   Clear
5:53 PM 63.0 °F - 48.0 °F 58% 29.95 in 10.0 mi South 9.2 mph - N/A   Clear
6:53 PM 59.0 °F - 48.0 °F 67% 29.96 in 10.0 mi South 8.1 mph - N/A   Clear
7:53 PM 57.0 °F - 48.0 °F 72% 29.96 in 10.0 mi South 9.2 mph - N/A   Clear
8:53 PM 55.0 °F - 48.0 °F 77% 29.96 in 10.0 mi SSE 6.9 mph - N/A   Clear
9:53 PM 54.0 °F - 46.9 °F 77% 29.96 in 10.0 mi South 8.1 mph - N/A   Clear
10:53 PM 52.0 °F - 46.9 °F 83% 29.96 in 10.0 mi SSE 5.8 mph - N/A   Clear
11:53 PM 51.1 °F - 46.9 °F 86% 29.94 in 10.0 mi SSE 5.8 mph - N/A   Clear